KF5CFW Weather Reports


time (UTC)temp
F
wind
direction
speed
knots
gust
knots
rain 1hr
in
rain 24hr
in
rain mn
in
humidity
%
barometer
mb
20260505060033 74 145 0.0 1.7 0.00 0.00 0.00 45 1004.6
20260505054518 74 160 0.0 3.5 0.00 0.00 0.00 48 1004.3
20260505053013 74 188 0.0 1.7 0.00 0.00 0.00 51 1004.4
20260505051511 74 148 0.0 2.6 0.00 0.00 0.00 52 1004.7
20260505041508 75 141 0.0 4.3 0.00 0.00 0.00 53 1005.0
20260505040006 75 160 0.0 4.3 0.00 0.00 0.00 54 1004.7
20260505034505 75 160 0.0 0.9 0.00 0.00 0.00 54 1004.9
20260505033005 75 148 0.0 3.5 0.00 0.00 0.00 55 1004.8
20260505031504 75 168 0.0 4.3 0.00 0.00 0.00 55 1004.8
20260505030004 75 176 0.0 2.6 0.00 0.00 0.00 55 1005.0
20260505024503 75 145 0.0 2.6 0.00 0.00 0.00 56 1005.0
20260505023003 76 148 0.0 1.7 0.00 0.00 0.00 57 1004.8
20260505021502 76 150 0.0 2.6 0.00 0.00 0.00 57 1004.6
20260505020002 76 184 0.0 1.7 0.00 0.00 0.00 58 1004.6
20260505014503 76 164 0.0 1.7 0.00 0.00 0.00 58 1004.5
20260505013100 76 141 0.0 1.7 0.00 0.00 0.00 59 1004.7
20260505011600 77 192 0.0 2.6 0.00 0.00 0.00 59 1004.7
20260505010104 77 72 0.0 1.7 0.00 0.00 0.00 59 1004.7
20260505004559 77 148 0.0 2.6 0.00 0.00 0.00 59 1004.7
20260505003104 77 158 0.0 1.7 0.00 0.00 0.00 59 1004.8
20260505001558 78 160 0.0 3.5 0.00 0.00 0.00 59 1004.9
20260505000058 78 217 0.0 4.3 0.00 0.00 0.00 59 1005.0
20260504234555 78 148 0.0 5.2 0.00 0.00 0.00 59 1005.1
20260504233057 78 150 0.0 4.3 0.00 0.00 0.00 59 1005.2
20260504231552 79 207 0.0 2.6 0.00 0.00 0.00 59 1005.3
20260504230052 79 170 0.0 3.5 0.00 0.00 0.00 59 1005.2
20260504224550 80 242 0.0 3.5 0.00 0.00 0.00 58 1005.8
20260504223102 80 155 0.0 3.5 0.00 0.00 0.00 58 1005.7
20260504221548 81 187 0.0 3.5 0.00 0.00 0.00 56 1005.8
20260504220047 82 151 0.0 6.1 0.00 0.00 0.00 56 1005.8
20260504214545 83 170 0.0 2.6 0.00 0.00 0.00 55 1005.9
20260504213044 84 340 0.0 4.3 0.00 0.00 0.00 55 1006.2
20260504211611 85 155 0.0 2.6 0.00 0.00 0.00 54 1006.3
20260504210045 85 60 0.9 3.5 0.00 0.00 0.00 52 1006.5
20260504204537 85 215 0.0 2.6 0.00 0.00 0.00 52 1007.0
20260504203034 84 191 0.9 4.3 0.00 0.00 0.00 53 1007.1
20260504201531 83 143 0.0 2.6 0.00 0.00 0.00 53 1007.6
20260504200028 83 165 0.0 1.7 0.00 0.00 0.00 53 1007.9
20260504194527 83 160 0.0 2.6 0.00 0.00 0.00 53 1008.3
20260504193027 84 186 0.0 3.5 0.00 0.00 0.00 51 1008.5
20260504191525 83 197 0.0 3.5 0.00 0.00 0.00 53 1008.7
20260504190020 83 159 0.0 2.6 0.00 0.00 0.00 51 1009.0
20260504184521 83 184 0.0 2.6 0.00 0.00 0.00 53 1009.3
20260504183015 82 131 0.0 3.5 0.00 0.00 0.00 53 1009.4
20260504181512 81 160 0.0 2.6 0.00 0.00 0.00 53 1009.7
20260504180012 82 200 0.0 1.7 0.00 0.00 0.00 52 1009.9
20260504174507 81 194 0.0 3.5 0.00 0.00 0.00 53 1010.1
20260504173005 80 197 0.9 3.5 0.00 0.00 0.00 52 1010.2
20260504171501 80 148 0.0 2.6 0.00 0.00 0.00 54 1010.5
20260504081553 63 155 0.0 2.6 0.00 0.00 0.00 61 1012.7